Date,TemperatureHighF,TemperatureAvgF,TemperatureLowF,DewpointHighF,DewpointAvgF,DewpointLowF,HumidityHigh,HumidityAvg,HumidityLow,PressureMaxIn,PressureMinIn,WindSpeedMaxMPH,WindSpeedAvgMPH,GustSpeedMaxMPH,PrecipitationSumIn
2013-1-1,72.1,60.2,49.1,63.8,54.9,44.8,100,84,64,29.97,29.77,9,2,10,0.00
2013-1-2,65.6,62.3,58.6,65.6,59.3,53.1,100,90,73,29.88,29.74,6,2,10,0.00
2013-1-3,58.6,52.0,46.2,53.3,47.7,42.8,91,85,73,30.06,29.85,5,1,8,0.36
2013-1-4,56.1,47.7,41.2,44.1,40.6,35.5,89,77,60,30.12,30.03,5,1,8,0.00
2013-1-5,60.1,51.3,42.8,45.4,39.4,33.7,84,65,45,30.12,30.00,5,0,8,0.07
2013-1-6,55.9,52.0,49.3,46.2,44.7,42.4,86,76,62,30.00,29.91,4,0,6,0.00
2013-1-7,58.6,51.4,45.7,44.4,41.0,37.0,81,68,54,30.09,29.97,6,2,8,0.00
2013-1-8,72.1,59.7,50.3,59.5,51.3,41.8,91,74,63,30.09,29.97,6,1,8,0.00
2013-1-9,70.0,64.3,60.2,68.6,63.2,58.9,100,97,90,30.12,30.00,4,0,7,0.00
2013-1-10,75.0,68.1,63.5,68.4,64.0,59.4,100,88,64,30.12,30.00,7,1,9,0.00
2013-1-11,75.4,67.1,61.9,64.9,61.6,58.3,100,84,62,30.03,29.88,8,2,11,0.00
2013-1-12,75.4,65.4,56.8,65.9,60.8,54.9,100,86,63,29.97,29.85,7,1,9,0.00
2013-1-13,76.3,66.9,60.4,66.8,62.7,60.1,100,88,62,29.91,29.83,9,2,15,0.00
2013-1-14,77.7,68.1,62.9,67.6,62.3,57.4,100,84,56,29.94,29.85,10,2,13,0.00
2013-1-15,77.5,66.8,58.4,65.5,61.3,57.0,100,84,55,29.91,29.80,10,3,13,0.00
2013-1-16,75.4,68.3,64.2,67.8,65.5,63.9,100,92,69,29.85,29.74,9,4,13,0.00
2013-1-17,67.8,56.0,45.5,67.8,48.4,33.1,100,77,53,29.94,29.71,11,3,13,0.36
2013-1-18,64.2,52.2,42.6,43.1,38.1,33.0,80,60,43,30.21,29.94,7,2,9,0.00
2013-1-19,69.8,55.7,45.3,50.4,41.5,32.7,70,59,47,30.15,29.97,6,1,6,0.00
2013-1-20,70.7,58.8,50.3,51.3,46.4,43.1,81,64,48,30.03,29.88,5,1,7,0.00
2013-1-21,69.2,56.5,45.8,47.4,43.2,38.7,81,63,43,29.97,29.83,5,1,7,0.00
2013-1-22,62.9,52.3,44.0,41.9,35.8,30.9,68,54,40,30.09,29.91,8,1,10,0.00
2013-1-23,65.3,51.5,39.2,45.7,37.6,29.9,72,60,44,30.18,30.06,5,1,6,0.00
2013-1-24,72.5,59.4,48.5,53.7,48.1,40.8,89,67,51,30.09,29.97,6,1,9,0.00
2013-1-25,70.5,60.5,51.6,52.9,48.3,41.5,82,65,52,30.12,29.94,8,2,11,0.00
2013-1-26,77.0,63.7,52.5,60.7,54.6,47.6,93,73,52,30.03,29.94,5,1,7,0.00
2013-1-27,74.5,62.5,51.8,57.5,50.9,41.2,85,66,52,30.12,30.03,8,1,8,0.00
2013-1-28,73.6,63.7,55.6,60.5,55.8,50.1,87,76,60,30.12,30.00,9,2,13,0.00
2013-1-29,78.4,67.5,61.1,65.1,61.4,57.7,97,82,52,30.03,29.83,12,3,15,0.00
2013-1-30,72.5,66.4,57.2,69.2,63.9,45.5,100,92,65,29.83,29.50,14,6,22,0.47
2013-1-31,61.5,52.8,42.8,45.9,35.8,30.3,66,53,41,30.03,29.71,7,2,10,0.04
2013-2-1,61.5,49.9,42.8,41.5,35.8,30.2,73,59,44,30.12,30.00,6,1,8,0.00
2013-2-2,64.6,49.5,36.1,38.2,31.5,22.6,62,51,37,30.12,29.94,5,1,8,0.00
2013-2-3,67.6,55.2,46.9,47.2,41.0,35.2,89,61,40,29.97,29.85,5,1,11,0.00
2013-2-4,64.0,54.5,44.4,45.6,40.7,35.8,76,60,44,29.91,29.80,7,1,8,0.00
2013-2-5,63.1,59.0,53.8,60.1,53.1,45.0,96,82,61,29.88,29.77,5,0,6,0.43
2013-2-6,69.6,62.4,56.8,61.0,57.7,56.1,100,86,65,29.94,29.80,5,0,6,0.00
2013-2-7,64.7,60.9,57.5,64.7,60.0,55.5,100,97,86,29.85,29.56,14,2,19,0.24
2013-2-8,67.8,59.6,55.4,57.4,55.2,53.0,96,86,66,29.91,29.71,5,0,6,0.00
2013-2-9,68.5,57.2,46.0,53.0,45.2,41.8,92,67,42,30.06,29.91,8,1,10,0.00
2013-2-10,71.4,60.1,48.5,59.8,50.6,40.2,83,71,62,30.00,29.88,13,4,17,0.00
2013-2-11,75.7,67.5,61.5,67.0,63.8,57.8,100,89,71,29.94,29.83,9,4,13,0.91
2013-2-12,69.4,63.2,60.1,69.2,63.2,59.7,100,100,97,29.85,29.59,9,1,15,0.51
2013-2-13,74.3,66.3,52.1,69.2,58.8,46.4,100,79,47,29.80,29.59,7,1,10,0.39
2013-2-14,52.3,49.1,42.8,48.1,42.1,36.1,88,77,66,29.91,29.74,6,1,8,0.00
2013-2-15,68.5,52.8,39.0,46.5,40.0,32.4,87,64,42,29.91,29.77,6,1,8,0.00
2013-2-16,60.1,49.5,40.1,44.2,36.0,23.9,81,61,43,29.97,29.74,8,2,10,0.00
2013-2-17,56.5,45.1,33.8,31.8,27.1,22.5,64,50,37,30.12,29.94,6,1,9,0.00
2013-2-18,61.9,49.9,36.8,36.0,31.1,26.9,70,50,38,30.15,29.94,10,2,15,0.00
2013-2-19,64.6,54.9,42.2,64.1,48.1,31.0,99,79,46,29.94,29.80,10,1,12,0.04
2013-2-20,64.6,52.0,41.0,41.7,35.6,30.4,74,55,37,29.97,29.85,6,1,8,0.00
2013-2-21,70.1,56.4,41.0,53.9,42.2,32.3,81,60,43,29.94,29.77,8,1,10,0.00
2013-2-22,64.4,62.6,59.2,64.4,62.3,53.1,100,99,80,29.88,29.74,7,2,10,3.15
2013-2-23,70.3,65.5,61.7,69.6,65.4,61.7,100,100,92,29.74,29.62,8,1,13,1.93
2013-2-24,73.6,63.6,55.9,62.2,55.2,51.0,100,77,49,29.80,29.65,6,1,8,0.12
2013-2-25,59.9,58.3,55.9,59.5,57.3,54.1,100,96,81,29.71,29.50,8,2,11,4.09
2013-2-26,72.1,64.3,54.7,65.3,53.8,44.8,100,72,44,29.65,29.35,11,4,14,1.69
2013-2-27,64.9,57.0,49.6,45.1,42.4,38.4,74,59,44,29.80,29.65,6,1,8,0.00
2013-2-28,67.8,57.5,47.3,43.2,40.1,36.8,81,54,37,29.80,29.71,6,1,8,0.00
2013-3-1,56.8,50.8,45.8,37.3,34.2,30.7,61,53,47,29.85,29.74,6,1,8,0.00
2013-3-2,55.4,47.7,39.2,34.4,31.4,27.7,63,54,45,29.85,29.77,7,2,9,0.00
2013-3-3,53.9,45.9,40.4,33.1,29.3,27.2,59,52,45,29.91,29.80,8,2,9,0.00
2013-3-4,66.4,51.8,36.8,39.7,33.1,26.0,67,50,37,30.00,29.88,8,1,9,0.00
2013-3-5,70.3,59.3,48.2,59.4,49.6,35.4,90,71,58,29.88,29.71,10,3,13,0.04
2013-3-6,61.3,52.3,43.9,42.1,34.7,30.1,69,52,41,29.94,29.80,8,2,10,0.00
2013-3-7,65.3,54.0,38.5,41.6,35.5,29.2,69,50,40,30.06,29.94,6,1,9,0.00
2013-3-8,73.2,57.7,41.0,45.3,38.5,31.6,72,51,36,30.06,29.94,6,1,8,0.00
2013-3-9,70.9,61.0,55.4,43.9,39.5,37.1,63,46,36,30.06,29.94,7,1,11,0.00
2013-3-10,73.9,63.5,53.2,51.2,46.9,40.6,75,56,42,29.94,29.85,10,3,14,0.00
2013-3-11,70.5,61.8,55.6,62.4,53.9,46.4,100,76,56,29.85,29.62,13,4,20,0.28
2013-3-12,65.5,57.4,48.7,62.8,47.1,39.9,100,70,44,29.88,29.62,6,2,9,0.59
2013-3-13,71.4,57.0,44.9,45.3,38.6,31.9,71,52,36,30.03,29.88,8,2,10,0.00
2013-3-14,65.5,54.4,42.6,38.5,33.4,27.5,57,45,37,30.15,30.00,8,2,10,0.00
2013-3-15,75.4,59.3,43.9,48.0,39.9,31.7,63,50,38,30.09,29.88,7,1,12,0.00
2013-3-16,79.9,64.0,48.2,55.4,48.1,40.2,82,58,40,29.97,29.80,8,2,10,0.00
2013-3-17,66.7,61.5,56.1,60.8,56.9,50.2,100,86,69,29.85,29.80,8,2,10,0.59
2013-3-18,77.5,66.5,60.4,66.5,62.5,59.6,100,88,61,29.83,29.65,9,2,17,0.24
2013-3-19,75.4,64.9,58.8,62.6,58.3,51.7,100,81,55,29.85,29.68,8,1,14,0.86
2013-3-20,73.2,61.0,52.7,52.0,43.4,37.9,77,53,38,29.85,29.68,7,2,10,0.00
2013-3-21,67.1,55.8,45.3,40.9,37.0,33.1,67,50,37,29.80,29.68,6,1,8,0.00
2013-3-22,69.6,58.6,50.0,43.7,38.6,31.2,65,48,37,29.83,29.71,9,1,12,0.00
2013-3-23,62.2,58.9,55.9,61.6,52.7,41.9,100,82,51,29.74,29.50,5,0,8,3.15
2013-3-24,85.3,71.9,59.2,72.7,61.9,46.1,100,75,40,29.56,29.32,10,3,13,1.66
2013-3-25,65.3,55.9,45.5,46.4,35.7,30.2,58,47,37,29.88,29.56,7,3,13,0.00
2013-3-26,59.7,50.1,39.5,36.0,30.5,25.1,58,47,39,30.09,29.88,7,2,10,0.00
2013-3-27,63.5,51.1,38.3,37.9,32.2,26.2,63,49,38,30.15,30.03,6,1,9,0.00
2013-3-28,70.7,55.8,41.3,42.6,37.0,31.5,69,51,36,30.15,30.03,7,1,9,0.00
2013-3-29,76.3,61.3,45.8,48.5,42.0,36.6,72,51,35,30.15,29.97,6,1,14,0.00
2013-3-30,77.0,64.0,49.1,53.1,47.7,41.4,81,57,41,30.06,29.91,8,2,11,0.00
2013-3-31,76.3,67.2,58.4,61.9,55.2,47.0,93,66,54,29.94,29.77,10,2,14,0.00
2013-4-1,81.3,69.5,61.7,62.9,57.4,51.7,89,67,46,29.83,29.74,6,1,9,0.00
2013-4-2,82.6,67.8,54.3,54.4,50.7,46.2,79,57,36,29.97,29.83,6,1,8,0.00
2013-4-3,67.1,62.3,57.7,64.3,55.8,47.5,99,80,60,29.91,29.77,8,1,12,0.11
2013-4-4,75.0,65.8,60.8,67.9,62.3,56.6,100,89,67,29.83,29.71,6,1,8,0.08
2013-4-5,60.8,57.4,53.4,57.5,51.1,46.5,90,80,67,29.91,29.68,6,1,8,0.00
2013-4-6,76.4,62.3,47.5,51.7,47.9,42.6,89,62,41,30.00,29.88,8,1,11,0.00
2013-4-7,79.1,66.6,55.7,58.8,53.4,47.0,86,64,47,30.03,29.91,9,2,11,0.00
2013-4-8,79.7,68.4,58.6,61.5,56.7,51.2,90,68,51,30.03,29.91,10,2,15,0.00
2013-4-9,82.6,70.5,59.0,63.2,58.5,54.8,91,68,47,30.03,29.94,9,1,10,0.00
2013-4-10,84.7,72.1,61.5,63.1,58.9,56.1,87,65,41,30.00,29.83,7,1,12,0.00
2013-4-11,77.0,69.5,62.9,71.9,65.9,57.8,100,89,73,29.85,29.62,10,3,15,0.08
2013-4-12,76.8,70.0,63.5,71.9,65.3,52.1,100,87,55,29.83,29.65,5,1,8,0.28
2013-4-13,79.0,66.9,53.6,53.3,50.6,47.1,83,58,40,29.97,29.83,5,1,8,0.00
2013-4-14,66.0,61.8,58.6,59.5,55.4,50.4,100,81,59,29.94,29.74,8,2,11,1.30
2013-4-15,83.5,70.3,58.4,69.2,63.8,57.6,99,82,59,30.03,29.80,5,0,6,0.04
2013-4-16,86.5,75.4,65.3,69.1,65.8,63.1,94,74,51,30.12,30.00,8,1,10,0.00
2013-4-17,82.6,72.8,66.4,67.8,63.9,61.1,93,75,52,30.12,30.00,7,1,8,0.00
2013-4-18,83.5,73.0,64.0,67.0,62.8,60.7,97,72,50,30.03,29.91,9,2,15,0.00
2013-4-19,79.7,67.4,53.9,74.3,64.3,50.1,100,90,79,30.06,29.83,10,2,13,0.67
2013-4-20,71.6,59.4,51.1,50.7,47.0,43.6,92,67,41,30.15,30.00,7,1,10,0.23
2013-4-21,77.0,64.2,50.3,58.0,51.0,42.1,87,63,50,30.21,30.09,8,2,11,0.00
2013-4-22,72.3,66.4,62.6,58.1,56.5,55.1,81,71,59,30.18,30.09,6,2,9,0.00
2013-4-23,80.0,68.4,57.4,59.8,56.5,53.0,88,68,49,30.18,30.09,7,1,9,0.00
2013-4-24,82.4,69.7,58.1,64.1,59.2,53.6,88,71,51,30.21,30.09,7,2,10,0.00
2013-4-25,79.3,70.1,64.0,68.9,63.8,59.3,100,82,61,30.30,30.15,4,0,6,0.00
2013-4-26,84.7,70.4,56.5,59.3,51.9,41.9,82,54,38,30.39,30.27,6,1,9,0.00
2013-4-27,83.1,71.9,61.0,63.5,59.6,55.1,83,67,50,30.36,30.21,9,2,11,0.00
2013-4-28,83.1,72.4,63.1,64.6,60.5,56.3,85,67,50,30.24,30.09,10,3,14,0.00
2013-4-29,79.7,67.8,63.5,67.7,63.8,61.4,99,88,60,30.18,30.09,10,1,12,1.10
2013-4-30,85.6,71.9,60.4,68.6,64.1,59.7,99,79,50,30.21,30.09,7,1,9,0.00
2013-5-1,70.9,68.2,65.6,67.9,64.5,61.9,100,88,78,30.27,30.15,7,2,10,0.00
2013-5-2,77.0,68.6,64.0,67.2,64.4,60.9,98,87,62,30.24,30.12,8,2,11,0.04
2013-5-3,69.1,65.9,63.7,66.8,63.9,60.6,100,93,77,30.15,30.03,7,2,13,0.28
2013-5-4,67.1,62.7,56.3,66.6,60.2,50.8,99,91,81,30.09,30.00,5,1,8,0.16
2013-5-5,75.5,61.8,47.3,58.5,50.6,43.9,90,69,43,30.15,30.03,8,2,17,0.00
2013-5-6,70.1,61.5,49.1,51.8,48.0,42.5,81,62,49,30.27,30.12,6,1,8,0.00
2013-5-7,78.1,66.8,56.5,57.9,54.5,51.5,87,66,48,30.27,30.18,6,1,8,0.00
2013-5-8,81.5,69.8,57.9,62.3,58.4,54.8,94,69,49,30.39,30.27,5,1,8,0.00
2013-5-9,86.3,73.3,63.3,66.7,62.3,58.6,99,71,46,30.42,30.33,5,1,6,0.00
2013-5-10,84.5,72.6,61.7,65.2,60.9,58.4,92,69,48,30.42,30.27,6,1,8,0.00
2013-5-11,82.6,71.6,63.7,71.5,65.8,60.1,100,83,64,30.36,30.24,6,1,9,0.00
2013-5-12,84.0,73.2,65.3,66.9,62.1,55.5,99,71,41,30.36,30.24,6,1,8,0.00
2013-5-13,78.8,68.1,57.7,56.0,48.9,45.4,69,52,37,30.50,30.33,8,2,11,0.00
2013-5-14,82.2,67.9,53.0,55.2,50.5,44.5,81,56,39,30.59,30.45,8,1,8,0.00
2013-5-15,86.9,72.6,59.0,63.0,57.1,52.1,87,60,40,30.56,30.36,6,1,8,0.00
2013-5-16,85.3,73.2,62.9,65.3,60.6,56.3,87,66,49,30.47,30.33,6,1,10,0.00
2013-5-17,88.1,74.9,62.6,67.4,62.3,58.7,95,67,45,30.45,30.33,6,1,9,0.00
2013-5-18,84.0,73.7,63.8,69.2,63.6,59.9,92,72,50,30.47,30.36,5,1,6,0.00
2013-5-19,89.6,77.5,66.0,68.9,66.3,63.3,95,71,49,30.45,30.30,7,1,9,0.00
2013-5-20,91.6,79.0,67.8,71.5,67.6,64.7,94,71,44,30.45,30.30,4,0,6,0.00
2013-5-21,91.4,79.8,69.2,72.1,68.1,65.1,97,70,47,30.39,30.24,8,1,10,0.00
2013-5-22,89.4,78.4,67.8,71.3,67.7,64.0,93,71,49,30.36,30.21,7,1,10,0.00
2013-5-23,91.7,80.9,70.7,72.8,67.2,62.1,96,66,41,30.39,30.24,6,1,11,0.00
2013-5-24,90.7,79.6,68.0,65.8,61.5,53.5,89,57,37,30.50,30.33,6,1,11,0.00
2013-5-25,87.2,75.5,62.8,61.4,55.8,50.9,68,51,38,30.62,30.47,8,1,13,0.00
2013-5-26,90.7,77.4,62.8,66.2,59.4,54.2,78,56,37,30.62,30.47,6,1,7,0.00
2013-5-27,89.0,77.8,65.8,68.1,61.9,58.7,88,61,38,30.59,30.45,8,1,8,0.00
2013-5-28,87.8,77.7,66.5,66.2,62.5,59.4,84,61,42,30.53,30.42,8,2,12,0.00
2013-5-29,89.9,78.8,70.5,75.8,67.2,62.9,95,69,48,30.50,30.42,11,2,12,0.39
2013-5-30,88.9,78.1,69.8,72.9,70.0,66.6,100,79,50,30.53,30.39,8,2,12,0.00
2013-5-31,88.1,78.8,70.1,71.4,69.2,66.8,98,74,50,30.50,30.36,9,3,13,0.00
2013-6-1,88.0,78.6,70.5,72.0,69.8,67.0,96,76,56,30.45,30.33,8,2,10,0.00
2013-6-2,89.0,79.9,71.9,73.8,71.7,70.0,97,78,58,30.42,30.24,8,2,9,0.00
2013-6-3,90.1,78.9,71.4,75.1,71.9,69.3,100,80,56,30.36,30.21,7,0,10,0.04
2013-6-4,92.3,80.3,72.1,77.4,73.9,71.1,100,82,55,30.42,30.27,7,1,9,0.00
2013-6-5,85.4,76.5,71.6,75.6,72.7,69.7,100,89,63,30.42,30.27,9,1,12,0.27
2013-6-6,72.8,71.0,69.8,72.1,70.9,69.8,100,100,97,30.33,30.03,8,1,11,1.82
2013-6-7,90.1,78.2,68.3,75.9,70.4,67.8,100,80,52,30.33,30.12,9,2,12,0.00
2013-6-8,90.5,79.2,71.4,75.5,72.2,69.6,100,81,57,30.56,30.27,8,1,9,0.00
2013-6-9,83.5,76.6,71.4,77.2,72.7,67.8,100,88,65,30.56,30.47,7,1,10,0.31
2013-6-10,90.7,78.1,71.4,77.9,73.0,70.7,100,86,56,30.59,30.47,7,1,9,0.04
2013-6-11,93.0,81.3,72.3,77.1,73.5,70.1,100,80,51,30.65,30.53,6,1,8,0.00
2013-6-12,96.2,84.0,73.0,78.7,74.2,71.2,99,75,48,30.68,30.56,5,0,6,0.00
2013-6-13,96.2,85.1,76.1,78.8,75.6,72.4,99,76,50,30.68,30.47,6,1,8,0.00
2013-6-14,91.9,83.5,77.9,78.3,74.5,70.0,92,76,57,30.68,30.50,6,1,8,0.00
2013-6-15,91.0,82.0,73.6,72.7,69.4,65.5,96,68,48,30.89,30.65,9,2,15,0.00
2013-6-16,91.6,80.8,71.2,75.1,70.9,66.4,88,73,52,31.01,30.89,7,2,8,0.00
2013-6-17,93.4,82.8,73.6,76.6,72.2,67.8,99,73,47,31.01,30.92,7,2,8,0.00
2013-6-18,94.3,83.9,73.2,75.9,71.5,69.0,96,68,47,31.01,30.92,7,2,12,0.00
2013-6-19,95.3,88.0,76.1,74.6,71.5,69.0,95,59,47,31.01,30.98,6,1,9,0.00
2013-6-20,91.7,84.6,72.7,75.1,72.5,68.6,94,69,51,31.01,31.01,8,1,10,0.47
2013-6-21,90.1,80.4,71.8,75.4,71.9,69.2,98,77,53,31.01,31.01,7,1,10,0.00
2013-6-22,87.1,81.1,72.3,73.0,71.8,70.4,96,74,59,31.01,31.01,8,2,10,0.00
2013-6-23,87.8,80.1,72.5,74.8,72.2,69.6,100,78,61,31.01,31.01,8,1,9,0.00
2013-6-24,89.0,79.6,72.8,79.1,74.2,70.3,100,84,60,31.01,31.01,6,1,8,0.00
2013-6-25,92.8,81.2,71.8,77.8,74.1,70.6,97,81,51,31.01,31.01,5,1,9,0.32
2013-6-26,94.1,81.3,71.0,77.6,73.2,70.2,100,79,51,31.01,31.01,5,1,6,0.00
2013-6-27,94.1,83.2,73.9,77.4,74.4,71.7,98,77,50,31.01,31.01,5,1,8,0.00
2013-6-28,89.2,80.5,73.2,78.5,74.8,71.2,98,84,60,31.01,31.01,7,1,10,0.16
2013-6-29,85.1,75.3,70.7,77.4,73.0,70.7,100,93,65,31.01,31.01,6,1,8,0.70
2013-6-30,85.6,76.7,70.9,79.0,74.5,70.6,100,94,70,31.01,30.98,7,1,9,1.66
2013-7-1,86.0,77.5,69.8,78.5,73.2,69.8,100,88,64,31.01,31.01,6,1,8,0.04
2013-7-2,85.1,78.2,71.4,76.7,74.4,71.4,100,89,67,31.01,31.01,8,2,10,0.55
2013-7-3,74.6,72.3,70.3,74.6,72.3,70.3,100,100,100,31.01,31.01,13,1,25,2.71
2013-7-4,73.4,71.4,70.3,73.4,71.4,70.3,100,100,100,31.01,31.01,7,1,10,0.91
2013-7-5,85.6,75.6,70.1,77.0,72.0,69.7,100,90,63,31.01,31.01,10,2,11,0.08
2013-7-6,83.5,74.6,71.0,76.8,72.7,71.0,100,94,75,31.01,31.01,8,2,10,0.04
2013-7-7,88.7,77.0,71.0,77.6,73.8,71.0,100,91,62,31.01,31.01,12,1,15,0.16
2013-7-8,88.7,78.4,72.5,79.4,75.7,72.5,100,92,62,31.01,31.01,6,0,8,0.23
2013-7-9,89.8,81.7,70.9,78.7,74.8,70.9,100,81,58,31.01,31.01,4,0,5,0.00
2013-7-10,89.6,81.4,73.4,79.3,75.1,70.5,100,82,63,31.01,31.01,5,0,6,0.08
2013-7-11,89.8,77.3,71.6,76.9,74.6,71.6,100,92,61,31.01,31.01,8,1,9,0.43
2013-7-12,85.1,78.3,73.0,76.8,74.3,73.0,100,88,71,31.01,31.01,8,1,9,0.91
2013-7-13,81.8,74.3,69.2,75.9,72.0,68.4,100,93,73,31.01,31.01,8,0,9,0.00
2013-7-14,87.4,77.4,71.9,77.3,73.5,71.9,100,89,64,31.01,31.01,8,2,13,0.00
2013-7-15,88.9,77.7,71.8,77.9,73.2,70.6,100,87,59,31.01,31.01,8,1,9,0.16
2013-7-16,89.8,79.3,73.2,76.2,73.9,72.2,100,85,59,31.01,31.01,7,1,10,0.00
2013-7-17,91.2,81.0,72.1,76.9,73.0,70.6,100,79,55,31.01,31.01,5,1,8,0.00
2013-7-18,90.7,81.2,73.6,76.1,72.5,67.4,96,77,48,31.01,31.01,6,1,9,0.00
2013-7-19,85.3,78.2,73.4,76.4,73.8,71.8,99,87,71,31.01,31.01,8,1,10,0.00
2013-7-20,82.7,74.8,72.1,77.9,73.8,72.1,100,97,79,31.01,31.01,8,1,10,1.61
2013-7-21,88.3,77.8,72.3,79.1,74.4,70.2,100,90,62,31.01,31.01,10,1,13,0.04
2013-7-22,80.4,74.5,71.8,79.0,73.4,70.9,100,96,85,31.01,31.01,6,1,9,0.39
2013-7-23,91.4,77.5,71.6,79.5,74.9,70.9,100,93,62,31.01,31.01,9,1,13,0.20
2013-7-24,91.2,76.0,70.3,79.5,73.5,70.3,100,93,65,31.01,31.01,8,1,12,0.95
2013-7-25,90.3,78.9,71.2,78.1,74.1,71.2,100,87,61,31.01,31.01,6,1,8,0.03
2013-7-26,94.8,82.3,73.0,80.1,75.0,72.2,100,81,50,31.01,31.01,5,0,6,0.00
2013-7-27,93.0,80.8,73.6,79.4,74.4,71.3,100,83,53,31.01,31.01,4,0,8,0.00
2013-7-28,89.2,79.4,73.2,76.7,73.7,71.2,100,84,59,31.01,31.01,6,1,8,0.00
2013-7-29,93.9,81.7,73.2,79.2,75.2,72.9,100,82,53,31.01,31.01,9,1,11,0.00
2013-7-30,93.4,82.3,75.2,80.0,75.9,73.1,100,83,54,31.01,31.01,8,1,11,0.56
2013-7-31,92.8,79.8,73.6,80.5,75.0,73.1,100,87,56,31.01,31.01,7,1,9,0.11
2013-8-1,86.3,78.9,73.6,80.0,75.4,73.0,100,90,66,31.01,31.01,6,1,8,0.79
2013-8-2,92.8,82.1,73.2,78.6,75.3,73.1,100,82,54,31.01,31.01,5,1,6,0.00
2013-8-3,93.4,82.1,73.4,81.4,76.5,73.3,100,85,58,31.01,31.01,7,1,8,0.16
2013-8-4,95.5,83.5,76.1,81.0,76.9,73.5,100,83,54,31.01,31.01,5,0,8,0.00
2013-8-5,94.3,82.9,73.7,79.5,75.2,71.7,99,79,54,31.01,31.01,4,1,6,0.00
2013-8-6,94.6,83.5,74.8,80.2,75.4,71.7,98,78,50,31.01,31.01,4,0,6,0.00
2013-8-7,91.9,81.6,74.8,79.0,75.4,73.0,99,83,59,31.01,31.01,7,1,8,0.00
2013-8-8,91.2,80.0,75.2,80.6,76.5,74.3,100,90,61,31.01,31.01,8,1,10,0.00
2013-8-9,93.0,82.3,74.1,80.1,75.9,73.0,100,83,57,31.01,31.01,7,1,8,0.04
2013-8-10,91.6,81.1,74.8,80.4,75.7,73.3,100,85,57,31.01,31.01,7,1,10,0.47
2013-8-11,96.1,83.4,74.6,79.7,75.8,73.8,100,80,50,31.01,31.01,6,1,8,0.00
2013-8-12,96.6,84.3,74.5,80.1,75.1,71.7,100,76,49,31.01,31.01,5,1,6,0.00
2013-8-13,92.8,79.9,74.8,80.0,75.6,71.7,98,87,60,31.01,25.28,13,1,17,0.24
2013-8-14,91.6,79.6,74.8,81.5,76.4,74.1,100,91,61,25.28,25.28,8,1,10,0.39
2013-8-15,89.0,78.5,72.7,79.3,75.3,72.7,100,91,65,25.28,25.28,7,1,9,0.16
2013-8-16,85.8,77.3,73.4,78.1,75.0,73.4,100,93,71,25.28,25.28,6,1,9,0.04
2013-8-17,78.6,73.1,70.3,76.3,72.8,70.3,100,99,84,25.28,25.28,7,1,10,1.89
2013-8-18,83.8,75.1,69.8,78.8,73.7,69.8,100,96,82,25.28,25.28,7,0,9,0.12
2013-8-19,91.4,78.5,72.1,77.6,74.3,71.7,100,88,57,25.28,25.28,7,1,10,0.66
2013-8-20,90.1,77.4,72.8,77.8,74.6,72.8,100,92,60,25.28,25.28,8,1,8,0.87
2013-8-21,91.7,78.3,71.2,77.7,73.6,71.2,100,87,54,25.28,25.28,8,1,11,0.04
2013-8-22,81.7,75.6,72.3,79.0,73.2,70.3,100,93,76,25.28,25.28,11,1,13,0.67
2013-8-23,89.4,77.1,70.7,77.2,73.3,70.7,100,90,61,25.28,25.28,6,1,8,0.00
2013-8-24,86.0,77.0,71.9,77.0,74.2,71.9,100,92,71,25.28,25.28,6,0,8,0.00
2013-8-25,84.4,77.2,73.2,74.3,72.9,70.8,100,87,69,25.28,25.28,6,1,9,0.00
2013-8-26,88.0,77.5,68.9,72.9,69.4,66.0,95,78,54,25.28,25.28,7,1,10,0.00
2013-8-27,89.8,79.1,70.9,74.9,71.9,69.1,100,80,55,25.28,25.28,5,0,6,0.00
2013-8-28,92.8,80.9,71.9,76.8,73.3,69.8,100,79,52,25.28,25.28,5,0,6,0.00
2013-8-29,93.4,81.3,71.9,76.4,73.0,70.9,100,78,51,25.28,25.28,5,0,9,0.00
2013-8-30,92.8,81.6,74.8,78.9,74.9,71.2,97,81,61,25.28,25.28,8,1,10,0.00
2013-8-31,88.0,79.2,72.5,78.1,74.9,72.5,100,88,68,25.28,25.28,7,1,9,0.00
2013-9-1,91.2,79.2,73.6,79.0,75.6,73.6,100,90,61,25.28,25.28,6,1,10,0.08
2013-9-2,91.0,79.1,74.5,80.0,75.3,71.9,100,89,63,25.28,25.28,8,1,8,0.00
2013-9-3,92.8,79.8,72.7,79.9,74.7,71.6,100,86,56,25.28,25.28,6,0,8,0.08
2013-9-4,92.8,81.2,72.5,80.1,74.0,69.2,100,81,55,25.28,25.28,7,1,7,0.00
2013-9-5,95.3,82.5,72.7,79.2,74.7,71.9,100,79,51,25.28,25.28,6,0,6,0.00
2013-9-6,94.3,82.6,74.5,76.7,74.2,70.7,99,78,54,25.28,25.28,6,1,10,0.00
2013-9-7,92.3,80.0,71.2,73.2,70.7,67.8,97,75,50,25.28,25.28,6,1,8,0.00
2013-9-8,91.6,79.8,70.0,75.6,70.2,67.5,97,75,49,25.28,25.28,5,0,8,0.00
2013-9-9,88.3,78.2,70.9,77.1,72.5,68.1,95,83,61,25.28,25.28,5,0,8,0.00
2013-9-10,90.7,80.7,70.5,74.5,71.4,68.7,97,75,51,25.28,25.28,9,1,12,0.00
2013-9-11,91.7,79.8,71.0,74.6,71.1,68.2,100,76,52,25.28,25.28,7,1,10,0.00
2013-9-12,92.3,80.0,71.0,76.1,71.3,69.2,100,77,50,25.28,25.28,7,1,8,0.00
2013-9-13,93.7,81.3,71.4,76.0,71.8,68.8,100,75,48,25.28,25.28,4,0,6,0.00
2013-9-14,92.6,81.2,72.5,74.5,71.1,66.8,97,73,51,25.28,25.28,5,1,8,0.00
2013-9-15,93.4,81.6,71.8,75.8,70.9,66.2,92,71,50,25.28,25.28,7,1,9,0.00
2013-9-16,93.4,80.8,73.0,77.6,74.1,70.3,97,82,51,25.28,25.28,9,1,11,0.39
2013-9-17,92.5,81.3,73.6,77.0,73.8,70.3,100,80,53,25.28,25.28,7,1,10,0.00
2013-9-18,85.8,77.3,70.9,72.8,70.5,67.8,92,80,63,25.28,25.28,8,1,10,0.00
2013-9-19,89.2,78.2,68.9,71.9,68.4,65.6,92,73,53,25.28,25.28,6,1,8,0.00
2013-9-20,88.0,78.0,70.0,71.5,68.8,66.0,96,75,50,25.28,25.28,8,1,10,0.00
2013-9-21,85.3,75.6,70.5,75.8,72.1,67.7,100,89,68,25.28,25.28,6,1,9,0.32
2013-9-22,78.8,73.9,72.1,76.8,73.5,72.1,100,99,88,25.28,25.28,7,0,10,1.57
2013-9-23,81.8,74.6,71.4,75.7,73.2,71.4,100,96,77,25.28,25.28,8,1,11,0.12
2013-9-24,80.0,75.2,72.8,76.2,74.3,72.8,100,97,86,25.28,25.28,5,0,6,0.00
2013-9-25,86.7,77.7,70.0,76.5,73.6,70.0,100,88,68,25.28,25.28,7,1,14,0.20
2013-9-26,79.9,74.1,69.6,76.2,70.6,66.5,100,89,69,25.28,25.28,6,1,8,0.00
2013-9-27,85.1,73.4,64.7,67.7,63.9,59.9,100,75,48,25.28,25.28,6,1,9,0.00
2013-9-28,84.2,72.8,64.6,66.8,62.1,58.4,88,70,53,25.28,25.28,8,1,10,0.00
2013-9-29,85.1,73.7,64.2,68.9,63.9,58.4,90,73,52,25.28,25.28,5,1,8,0.00
2013-9-30,73.6,70.3,67.4,71.0,67.2,64.1,96,90,79,25.28,25.28,4,0,6,0.00
2013-10-1,87.1,74.9,65.6,71.3,67.3,63.5,94,79,59,25.28,25.28,6,1,8,0.00
2013-10-2,86.2,76.1,69.2,69.5,67.1,65.1,89,75,55,25.28,25.28,5,1,8,0.00
2013-10-3,86.3,75.5,66.5,71.6,68.3,64.4,95,80,58,25.28,25.28,9,1,10,0.00
2013-10-4,89.4,78.5,70.1,75.6,71.5,69.1,100,81,54,25.28,25.28,6,1,8,0.00
2013-10-5,88.5,78.5,70.9,74.9,70.9,68.9,100,80,54,25.28,25.28,7,1,9,0.00
2013-10-6,84.9,75.7,71.4,74.8,71.9,69.4,100,89,65,25.28,25.28,7,1,10,0.00
2013-10-7,85.3,76.5,71.4,77.5,73.5,68.6,100,91,68,25.28,25.28,6,1,9,0.27
2013-10-8,85.6,74.5,64.4,71.8,66.3,58.2,88,76,61,25.28,25.28,6,2,8,0.00
2013-10-9,73.0,68.3,64.6,65.7,62.2,58.9,91,81,74,25.28,25.28,5,1,8,0.00
2013-10-10,85.1,71.3,60.2,64.9,62.2,57.9,96,76,49,25.28,25.28,5,0,6,0.00
2013-10-11,85.4,72.5,61.9,69.2,63.1,59.3,95,75,48,25.28,25.28,5,0,6,0.00
2013-10-12,84.9,71.4,62.4,66.6,62.8,59.3,94,76,49,25.28,25.28,5,0,8,0.00
2013-10-13,85.6,73.0,62.4,67.9,62.9,59.0,91,73,48,25.28,25.28,6,0,8,0.00
2013-10-14,82.2,72.9,65.8,67.9,64.5,62.4,95,76,55,25.28,25.28,6,1,9,0.00
2013-10-15,82.4,72.2,64.6,67.2,64.8,62.2,97,79,60,25.28,25.28,5,1,8,0.00
2013-10-16,84.9,73.7,66.4,67.2,65.1,62.5,90,76,52,25.28,25.28,4,0,6,0.00
2013-10-17,87.2,75.0,65.3,70.7,67.3,63.0,97,79,52,25.28,25.28,6,1,8,0.00
2013-10-18,82.4,73.6,69.8,75.2,71.1,67.2,100,92,73,25.28,25.28,6,0,7,0.08
2013-10-19,74.8,70.4,65.8,73.7,69.7,64.6,100,97,86,25.28,25.28,4,0,6,0.04
2013-10-20,77.9,69.7,63.8,65.1,63.0,60.3,96,81,61,25.28,25.28,6,1,9,0.00
2013-10-21,75.9,70.2,65.3,69.6,65.4,60.5,96,85,74,25.28,25.28,5,0,6,0.00
2013-10-22,70.0,68.4,66.7,70.0,68.1,66.4,100,99,95,25.28,25.28,4,0,4,0.12
2013-10-23,77.3,66.1,57.0,66.5,55.9,45.9,100,73,42,25.28,25.28,7,1,10,0.00
2013-10-24,75.9,62.1,50.7,53.6,48.0,42.4,78,62,41,25.28,25.28,6,1,8,0.00
2013-10-25,72.3,61.2,52.3,52.7,48.1,39.6,86,64,41,25.28,25.28,8,1,10,0.00
2013-10-26,72.1,57.8,45.3,49.3,43.2,36.9,76,59,41,25.28,25.28,6,1,8,0.00
2013-10-27,77.2,62.0,48.4,55.3,48.8,41.1,80,63,43,25.28,25.28,5,0,8,0.00
2013-10-28,79.7,66.6,55.9,59.4,55.5,51.5,91,70,47,25.28,25.28,6,1,8,0.00
2013-10-29,80.9,68.1,57.5,62.3,57.6,54.0,90,71,46,25.28,25.28,8,1,10,0.00
2013-10-30,82.2,69.6,59.2,62.0,57.7,54.5,90,68,43,25.28,25.28,7,1,8,0.00
2013-10-31,80.6,70.3,62.9,69.4,64.2,57.2,100,82,60,25.28,25.28,10,2,11,0.00
2013-11-1,77.9,72.0,68.3,75.0,71.1,68.3,100,97,85,25.28,25.28,8,2,11,0.78
2013-11-2,76.8,67.1,59.0,68.9,58.5,50.3,100,76,46,25.28,25.28,5,1,8,0.04
2013-11-3,72.3,60.9,51.4,50.7,46.7,43.4,76,61,41,25.28,25.28,7,1,9,0.00
2013-11-4,75.2,62.0,51.1,57.2,50.5,42.8,75,67,53,25.28,25.28,6,1,9,0.00
2013-11-5,74.3,64.6,55.9,59.1,52.4,45.1,77,65,55,25.28,25.28,7,3,13,0.00
2013-11-6,77.9,68.6,63.7,65.2,62.1,54.6,93,81,64,25.28,25.28,7,1,10,0.00
2013-11-7,79.9,68.0,56.6,68.2,62.2,44.9,95,82,64,25.28,25.28,7,1,8,0.00
2013-11-8,69.6,58.0,47.6,47.2,43.3,37.6,70,59,43,25.28,25.28,8,2,9,0.00
2013-11-9,75.7,61.4,49.4,58.8,50.0,40.2,80,67,53,25.28,25.28,6,1,9,0.00
2013-11-10,75.4,64.3,56.8,61.4,56.7,53.1,92,78,57,25.28,25.28,5,0,6,0.00
2013-11-11,77.9,63.9,52.3,57.0,52.5,47.4,87,69,43,25.28,25.28,6,0,8,0.00
2013-11-12,73.0,61.9,52.3,60.0,50.6,33.5,91,68,45,25.28,25.28,8,1,13,0.00
2013-11-13,59.3,49.3,41.0,35.8,31.2,27.1,62,50,39,25.28,25.28,8,3,11,0.00
2013-11-14,66.4,52.7,39.2,50.7,39.7,26.5,76,61,53,25.28,25.28,7,1,9,0.00
2013-11-15,63.1,59.1,55.6,59.8,55.8,48.8,96,89,77,25.28,25.28,8,1,13,0.00
2013-11-16,75.0,65.0,56.6,67.1,61.5,56.1,100,89,67,25.28,25.28,7,1,9,0.00
2013-11-17,75.4,69.0,65.1,70.9,68.1,65.1,100,97,83,25.28,25.28,7,1,10,0.00
2013-11-18,73.7,69.9,61.5,73.7,69.8,58.2,100,99,89,25.28,25.28,2,0,5,0.56
2013-11-19,70.5,60.0,50.2,58.5,47.3,41.3,90,64,44,25.28,25.28,5,1,8,0.00
2013-11-20,70.1,60.5,53.8,56.9,50.2,44.3,73,69,60,25.28,25.28,6,1,9,0.00
2013-11-21,72.5,63.8,57.4,63.4,58.4,49.8,96,83,67,25.28,25.28,5,1,6,0.00
2013-11-22,75.2,66.5,62.6,67.9,64.3,61.3,100,93,76,25.28,25.28,0,0,3,0.00
2013-11-23,70.9,65.3,58.8,67.7,62.7,47.5,100,92,66,25.28,25.28,6,0,8,0.00
2013-11-24,63.1,54.9,47.1,47.9,38.2,32.7,67,54,43,25.28,25.28,8,2,13,0.00
2013-11-25,59.0,52.5,44.8,52.6,40.5,30.5,84,64,56,25.28,25.28,8,2,11,0.00
2013-11-26,71.8,63.2,56.5,71.6,62.6,52.7,100,98,85,25.28,25.28,10,2,14,1.89
2013-11-27,57.2,47.7,38.3,54.9,40.4,30.1,94,76,57,25.28,25.28,6,1,10,0.03
2013-11-28,54.7,42.9,33.4,36.6,30.8,24.7,74,63,46,25.28,25.28,6,0,8,0.00
2013-11-29,63.8,49.8,39.2,45.5,37.1,30.8,74,62,46,25.28,25.28,5,0,7,0.00
2013-11-30,68.9,54.9,43.5,54.4,44.8,35.1,79,69,57,25.28,25.28,5,0,7,0.00
2013-12-1,64.6,55.7,48.9,54.9,48.5,42.0,87,77,67,25.28,25.28,4,0,6,0.00
2013-12-2,71.6,59.6,52.7,57.4,51.9,49.2,95,77,53,25.28,25.28,4,0,6,0.00
2013-12-3,72.8,62.0,53.2,64.9,58.5,49.9,100,89,66,25.28,25.28,10,1,11,0.00
2013-12-4,75.7,66.8,62.8,69.8,65.6,62.8,100,96,73,25.28,25.28,7,1,10,0.04
2013-12-5,77.9,69.2,64.4,73.4,66.2,62.9,100,91,66,25.28,25.28,8,1,12,0.00
2013-12-6,78.6,69.0,61.5,69.8,65.7,60.9,100,90,67,25.28,25.28,8,1,11,0.00
2013-12-7,73.2,68.3,62.8,72.8,67.6,61.6,100,98,92,25.28,25.28,0,0,0,0.20
2013-12-8,76.8,67.4,62.0,70.7,64.3,61.8,100,91,66,25.28,25.28,10,1,12,0.00
2013-12-9,77.9,69.8,64.9,73.0,67.9,64.3,100,94,72,25.28,25.28,7,1,10,0.00
2013-12-10,72.1,63.4,49.1,72.1,58.1,39.4,100,84,63,25.28,25.28,8,1,9,0.04
2013-12-11,66.0,54.4,43.5,53.1,43.7,34.0,73,67,56,25.28,25.28,5,1,8,0.00
2013-12-12,64.0,53.4,42.8,45.4,39.1,32.9,78,60,40,25.28,25.28,6,1,8,0.00
2013-12-13,64.0,51.6,39.2,49.9,39.7,26.9,79,64,54,25.28,25.28,6,0,8,0.00
2013-12-14,67.1,61.1,54.7,66.7,59.7,48.7,100,95,79,25.28,25.28,11,1,12,0.87
2013-12-15,64.6,53.1,43.0,64.6,48.7,35.8,100,85,70,25.28,25.28,0,0,0,0.11
2013-12-16,62.0,48.5,37.9,43.9,37.9,32.0,81,68,46,25.28,25.28,0,0,0,0.00
2013-12-17,68.0,52.4,40.3,45.9,39.7,34.0,81,64,42,25.28,25.28,0,0,0,0.00
2013-12-18,65.1,52.6,44.6,43.0,39.4,35.8,80,62,42,25.28,25.28,0,0,0,0.00
2013-12-19,67.3,52.7,40.4,46.0,39.2,31.9,75,62,42,25.28,25.28,0,0,0,0.00
2013-12-20,74.1,59.4,45.7,60.7,52.4,39.4,92,78,62,25.28,25.28,7,0,11,0.00
2013-12-21,71.0,66.6,60.4,69.4,65.8,58.2,100,97,91,25.28,25.28,12,3,17,0.00
2013-12-22,73.9,69.8,67.6,72.5,69.5,67.6,100,99,90,25.28,25.28,8,1,11,0.00
2013-12-23,70.3,61.8,51.4,70.3,61.3,48.1,100,98,88,25.28,25.28,0,0,0,1.03
2013-12-24,60.1,49.3,40.4,48.3,38.0,31.6,89,66,46,25.28,25.28,0,0,0,0.00
2013-12-25,59.3,47.3,35.4,46.8,37.5,27.3,78,69,60,25.28,25.28,0,0,0,0.00
2013-12-26,55.0,51.0,47.1,46.7,44.4,40.0,90,78,70,25.28,25.28,0,0,0,0.04
2013-12-27,60.1,54.5,50.7,50.5,46.6,44.1,84,75,67,25.28,25.28,0,0,0,0.00
2013-12-28,64.2,56.8,52.1,64.2,50.9,41.9,100,81,66,25.28,25.28,0,0,0,0.00
2013-12-29,68.5,62.6,53.6,66.4,57.5,46.0,100,84,65,25.28,25.28,8,0,19,0.94
2013-12-30,63.7,54.5,46.2,50.1,46.5,41.6,89,75,56,25.28,25.28,0,0,0,0.00
2013-12-31,55.2,53.2,50.5,50.9,47.7,44.6,87,82,73,25.28,25.28,0,0,4,0.00
2014-1-1,53.9,51.4,49.1,53.9,48.9,42.9,100,91,77,25.28,25.28,0,0,0,0.16
2014-1-2,59.2,54.1,43.9,59.2,52.6,32.8,100,95,64,25.28,25.28,7,0,10,0.47